This is the latest recevied weather packets stored in our database for station/object SV2JU-2. If no packets are shown the sender has not sent any weather packets the latest 1 day(s).
| Time | Temp. | Humidity | Pressure | Rain* | Wind** | Luminosity | Snow |
|---|---|---|---|---|---|---|---|
| 1777991824 | 24.44° C | 5% | 1014 hPa | 0 mm | 1.79 m/s, 248° | - | - |
| 1777991071 | 24.44° C | 5% | 1014 hPa | 0 mm | 1.79 m/s, 235° | - | - |
| 1777989571 | 24.44° C | 5% | 1014 hPa | 0 mm | 1.79 m/s, 168° | - | - |
| 1777988822 | 24.44° C | 5% | 1014 hPa | 0 mm | 1.34 m/s, 157° | - | - |
| 1777988684 | 24.44° C | 5% | 1014 hPa | 0 mm | 1.79 m/s, 157° | - | - |
| 1777987935 | 24.44° C | 5% | 1014 hPa | 0 mm | 1.79 m/s, 233° | - | - |
| 1777987184 | 24.44° C | 5% | 1014 hPa | 0 mm | 1.79 m/s, 149° | - | - |
| 1777986435 | 24.44° C | 5% | 1014 hPa | 0 mm | 1.79 m/s, 173° | - | - |
| 1777985684 | 24.44° C | 5% | 1014 hPa | 0 mm | 1.34 m/s, 206° | - | - |
| 1777984936 | 24.44° C | 5% | 1014 hPa | 0 mm | 1.79 m/s, 254° | - | - |
| 1777984184 | 24.44° C | 6% | 1014 hPa | 0 mm | 1.79 m/s, 242° | - | - |
| 1777983435 | 24.44° C | 6% | 1014 hPa | 0 mm | 1.34 m/s, 187° | - | - |
| 1777982684 | 23.89° C | 6% | 1015 hPa | 0 mm | 1.79 m/s, 231° | - | - |
| 1777981937 | 23.89° C | 6% | 1015 hPa | 0 mm | 1.79 m/s, 252° | - | - |
| 1777981184 | 23.89° C | 5% | 1015 hPa | 0 mm | 1.34 m/s, 267° | - | - |
| 1777980435 | 23.89° C | 6% | 1015 hPa | 0 mm | 1.34 m/s, 260° | - | - |
| 1777979684 | 23.89° C | 6% | 1015 hPa | 0 mm | 1.34 m/s, 254° | - | - |
| 1777978934 | 23.33° C | 6% | 1015 hPa | 0 mm | 1.34 m/s, 270° | - | - |
| 1777978184 | 23.33° C | 7% | 1015 hPa | 0 mm | 0.89 m/s, 270° | - | - |
| 1777977434 | 23.33° C | 7% | 1015 hPa | 0 mm | 1.34 m/s, 255° | - | - |
| 1777976684 | 23.33° C | 7% | 1015 hPa | 0 mm | 1.34 m/s, 258° | - | - |
| 1777975934 | 22.78° C | 8% | 1015 hPa | 0 mm | 2.24 m/s, 255° | - | - |
| 1777975183 | 22.78° C | 9% | 1015 hPa | 0 mm | 1.34 m/s, 262° | - | - |
| 1777974434 | 22.78° C | 9% | 1016 hPa | 0 mm | 0.89 m/s, 263° | - | - |
| 1777973684 | 22.22° C | 9% | 1016 hPa | 0 mm | 1.34 m/s, 289° | - | - |
* Rain latest hour (hover to see other rain measurements)
** Current wind speed in m/s (hover to see current wind gust speed)